Radiation Dose at Monitoring Post of Fukushima Daini Nuclear Power Station
Date,Time,MP-1(microSv/h),MP-2(microSv/h),MP-3(microSv/h),MP-4(microSv/h),MP-5(microSv/h),MP-6(microSv/h),MP-7(microSv/h),Wind Direction,Wind Velocity(m/s),Rain
2015/10/08,00:00,0.502,0.285,0.520,0.472,0.454,0.232,0.203,north-northwest,10.7,No
2015/10/08,00:10,0.497,0.287,0.515,0.475,0.454,0.233,0.202,north-northwest,11.2,No
2015/10/08,00:20,0.500,0.287,0.518,0.473,0.457,0.232,0.201,north-northwest,10.1,No
2015/10/08,00:30,0.497,0.285,0.515,0.474,0.454,0.231,0.202,north-northwest,11.5,No
2015/10/08,00:40,0.497,0.287,0.519,0.475,0.456,0.232,0.203,north-northwest,11.4,No
2015/10/08,00:50,0.500,0.286,0.515,0.473,0.454,0.231,0.202,north-northwest,11.6,No
2015/10/08,01:00,0.495,0.286,0.517,0.475,0.455,0.231,0.202,north-northwest,10.9,No
2015/10/08,01:10,0.502,0.286,0.519,0.472,0.457,0.232,0.203,north-northwest,11.3,No
2015/10/08,01:20,0.497,0.285,0.516,0.474,0.455,0.232,0.202,north-northwest,10.2,No
2015/10/08,01:30,0.500,0.285,0.519,0.474,0.458,0.232,0.203,north-northwest,10.5,No
2015/10/08,01:40,0.497,0.285,0.515,0.473,0.454,0.233,0.201,north-northwest,11.9,No
2015/10/08,01:50,0.499,0.286,0.520,0.475,0.458,0.232,0.203,north-northwest,11.9,No
2015/10/08,02:00,0.499,0.287,0.515,0.472,0.456,0.232,0.202,north-northwest,11.7,No
2015/10/08,02:10,0.497,0.286,0.518,0.474,0.452,0.232,0.202,north-northwest,11.3,No
2015/10/08,02:20,0.498,0.286,0.517,0.471,0.458,0.232,0.202,north-northwest,11.2,No
2015/10/08,02:30,0.497,0.285,0.517,0.476,0.455,0.231,0.203,north-northwest,12.0,No
2015/10/08,02:40,0.499,0.287,0.518,0.472,0.455,0.233,0.203,north-northwest,10.6,No
2015/10/08,02:50,0.497,0.286,0.516,0.476,0.457,0.231,0.201,north-northwest,11.5,No
2015/10/08,03:00,0.501,0.287,0.520,0.472,0.454,0.232,0.202,north-northwest,10.4,No
2015/10/08,03:10,0.496,0.288,0.516,0.472,0.458,0.232,0.203,north-northwest,9.8,No
2015/10/08,03:20,0.498,0.285,0.518,0.474,0.453,0.232,0.201,north-northwest,11.3,No
2015/10/08,03:30,0.499,0.288,0.515,0.471,0.456,0.232,0.202,northwest,10.4,No
2015/10/08,03:40,0.498,0.286,0.519,0.475,0.454,0.233,0.202,north-northwest,10.6,No
2015/10/08,03:50,0.499,0.286,0.518,0.472,0.454,0.232,0.202,north-northwest,11.1,No
2015/10/08,04:00,0.498,0.287,0.519,0.476,0.455,0.232,0.202,northwest,11.0,No
2015/10/08,04:10,0.500,0.285,0.517,0.474,0.453,0.233,0.202,north-northwest,11.0,No
2015/10/08,04:20,0.497,0.287,0.516,0.475,0.457,0.232,0.202,north-northwest,10.7,No
2015/10/08,04:30,0.502,0.286,0.519,0.474,0.452,0.231,0.202,north-northwest,11.0,No
2015/10/08,04:40,0.500,0.287,0.514,0.472,0.456,0.233,0.202,north-northwest,8.8,No
2015/10/08,04:50,0.499,0.286,0.519,0.476,0.456,0.232,0.202,northwest,12.0,No
2015/10/08,05:00,0.497,0.286,0.516,0.473,0.455,0.232,0.202,northwest,10.3,No
2015/10/08,05:10,0.501,0.289,0.519,0.476,0.456,0.233,0.202,northwest,9.8,No
2015/10/08,05:20,0.500,0.287,0.517,0.471,0.454,0.232,0.202,northwest,11.0,No
2015/10/08,05:30,0.500,0.288,0.520,0.476,0.457,0.233,0.203,west-northwest,9.8,No
2015/10/08,05:40,0.497,0.287,0.517,0.473,0.456,0.232,0.202,northwest,8.2,No
2015/10/08,05:50,0.498,0.287,0.517,0.475,0.454,0.232,0.202,northwest,9.2,No
2015/10/08,06:00,0.500,0.287,0.520,0.474,0.456,0.232,0.203,northwest,10.4,No
2015/10/08,06:10,0.497,0.285,0.515,0.472,0.454,0.232,0.202,northwest,10.5,No
2015/10/08,06:20,0.501,0.288,0.520,0.478,0.457,0.231,0.203,northwest,10.1,No
2015/10/08,06:30,0.496,0.286,0.515,0.474,0.453,0.232,0.202,northwest,10.2,No
2015/10/08,06:40,0.500,0.287,0.518,0.475,0.456,0.232,0.202,northwest,10.1,No
2015/10/08,06:50,0.498,0.286,0.515,0.474,0.458,0.232,0.203,northwest,10.5,No
2015/10/08,07:00,0.500,0.286,0.518,0.476,0.454,0.233,0.202,northwest,10.4,No
2015/10/08,07:10,0.497,0.287,0.517,0.475,0.457,0.232,0.203,northwest,9.6,No
2015/10/08,07:20,0.499,0.286,0.521,0.476,0.454,0.231,0.201,northwest,9.8,No
2015/10/08,07:30,0.499,0.287,0.516,0.472,0.459,0.231,0.202,northwest,8.1,No
2015/10/08,07:40,0.499,0.285,0.521,0.474,0.454,0.234,0.201,northwest,7.8,No
2015/10/08,07:50,0.499,0.287,0.516,0.473,0.457,0.232,0.203,northwest,6.7,No
2015/10/08,08:00,0.501,0.285,0.520,0.475,0.453,0.232,0.200,north,5.3,No
2015/10/08,08:10,0.498,0.288,0.517,0.472,0.458,0.232,0.202,west-northwest,5.2,No
2015/10/08,08:20,0.501,0.286,0.520,0.477,0.450,0.232,0.203,northwest,9.8,No
2015/10/08,08:30,0.498,0.286,0.515,0.472,0.456,0.232,0.201,west-northwest,10.1,No
2015/10/08,08:40,0.500,0.288,0.522,0.475,0.452,0.234,0.202,northwest,6.8,No
2015/10/08,08:50,0.496,0.285,0.514,0.472,0.459,0.231,0.203,northwest,10.0,No
2015/10/08,09:00,0.500,0.287,0.522,0.477,0.453,0.232,0.201,west-northwest,9.2,No
2015/10/08,09:10,0.496,0.287,0.515,0.475,0.454,0.232,0.200,northwest,7.7,No
2015/10/08,09:20,0.496,0.285,0.520,0.471,0.456,0.232,0.202,north-northwest,8.6,No
2015/10/08,09:30,0.500,0.286,0.516,0.466,0.451,0.232,0.203,north-northwest,7.8,No
2015/10/08,09:40,0.496,0.288,0.519,0.473,0.455,0.232,0.201,northwest,9.2,No
2015/10/08,09:50,0.492,0.285,0.520,0.475,0.457,0.233,0.200,west-northwest,10.9,No
2015/10/08,10:00,0.498,0.285,0.516,0.472,0.452,0.232,0.201,northwest,11.4,No
2015/10/08,10:10,0.499,0.288,0.520,0.469,0.450,0.231,0.201,west-northwest,8.9,No
2015/10/08,10:20,0.496,0.288,0.517,0.468,0.456,0.233,0.203,north-northwest,6.9,No
2015/10/08,10:30,0.493,0.287,0.519,0.468,0.456,0.233,0.203,northwest,9.5,No
2015/10/08,10:40,0.498,0.284,0.521,0.471,0.453,0.233,0.203,northwest,10.3,No
2015/10/08,10:50,0.501,0.285,0.514,0.477,0.451,0.232,0.202,northwest,10.7,No
2015/10/08,11:00,0.500,0.288,0.511,0.475,0.457,0.232,0.202,northwest,9.2,No
2015/10/08,11:10,0.493,0.286,0.511,0.475,0.455,0.232,0.201,north-northwest,10.1,No
2015/10/08,11:20,0.492,0.285,0.519,0.473,0.452,0.233,0.202,northwest,10.6,No
2015/10/08,11:30,0.501,0.285,0.517,0.471,0.452,0.233,0.204,northwest,10.3,No
2015/10/08,11:40,0.502,0.289,0.516,0.471,0.456,0.232,0.202,west-northwest,9.5,No
2015/10/08,11:50,0.498,0.287,0.512,0.472,0.458,0.232,0.203,west-northwest,9.8,No
2015/10/08,12:00,0.495,0.286,0.514,0.476,0.455,0.232,0.201,northwest,11.1,No
2015/10/08,12:10,0.504,0.285,0.520,0.478,0.452,0.232,0.201,west-northwest,11.8,No
2015/10/08,12:20,0.502,0.288,0.520,0.476,0.449,0.232,0.201,west-northwest,8.3,No
2015/10/08,12:30,0.497,0.289,0.517,0.472,0.452,0.232,0.201,west,9.9,No
2015/10/08,12:40,0.499,0.286,0.517,0.473,0.458,0.234,0.201,west-northwest,5.8,No
2015/10/08,12:50,0.502,0.287,0.514,0.472,0.458,0.232,0.202,west-northwest,8.7,No
2015/10/08,13:00,0.502,0.286,0.514,0.471,0.457,0.235,0.205,west-northwest,7.3,No
2015/10/08,13:10,0.497,0.287,0.514,0.470,0.454,0.234,0.204,northwest,6.8,Yes
2015/10/08,13:20,0.499,0.290,0.514,0.470,0.451,0.234,0.202,west-northwest,8.1,No
2015/10/08,13:30,0.501,0.287,0.519,0.473,0.449,0.233,0.203,west-northwest,6.6,No
2015/10/08,13:40,0.499,0.286,0.520,0.475,0.453,0.234,0.201,west,11.3,No
2015/10/08,13:50,0.499,0.285,0.520,0.483,0.459,0.233,0.201,west-northwest,7.2,No
2015/10/08,14:00,0.506,0.289,0.517,0.479,0.457,0.233,0.204,west-northwest,8.7,No
2015/10/08,14:10,0.500,0.289,0.515,0.474,0.456,0.234,0.208,west-northwest,9.2,No
2015/10/08,14:20,0.501,0.287,0.523,0.482,0.452,0.234,0.213,west,8.2,No
2015/10/08,14:30,0.504,0.285,0.523,0.479,0.461,0.234,0.215,west,9.3,No
2015/10/08,14:40,0.497,0.289,0.520,0.474,0.457,0.232,0.206,west-northwest,5.8,No
2015/10/08,14:50,0.499,0.288,0.524,0.480,0.453,0.233,0.203,west-northwest,4.5,No
2015/10/08,15:00,0.503,0.287,0.527,0.480,0.460,0.233,0.204,west-northwest,4.7,No
2015/10/08,15:10,0.498,0.291,0.519,0.477,0.459,0.236,0.205,west-northwest,5.0,No
2015/10/08,15:20,0.504,0.289,0.527,0.482,0.456,0.234,0.203,west,6.4,No
2015/10/08,15:30,0.504,0.289,0.522,0.476,0.461,0.233,0.204,west,3.9,No
2015/10/08,15:40,0.498,0.289,0.520,0.479,0.457,0.234,0.203,west,6.7,No
2015/10/08,15:50,0.505,0.288,0.525,0.479,0.457,0.232,0.204,west,5.6,No
2015/10/08,16:00,0.499,0.289,0.518,0.476,0.458,0.233,0.204,west-northwest,4.3,No
2015/10/08,16:10,0.503,0.288,0.522,0.480,0.452,0.233,0.203,west,4.4,No
2015/10/08,16:20,0.503,0.289,0.523,0.473,0.461,0.234,0.201,west,3.4,No
2015/10/08,16:30,0.498,0.288,0.520,0.480,0.454,0.233,0.203,west-northwest,6.9,No
2015/10/08,16:40,0.505,0.288,0.526,0.476,0.457,0.234,0.203,west,6.2,No
2015/10/08,16:50,0.499,0.288,0.518,0.478,0.459,0.234,0.203,west-northwest,5.2,No
2015/10/08,17:00,0.504,0.287,0.526,0.478,0.455,0.233,0.203,west,6.4,No
2015/10/08,17:10,0.501,0.289,0.521,0.480,0.458,0.232,0.203,west,6.7,No
2015/10/08,17:20,0.500,0.288,0.522,0.480,0.455,0.233,0.204,west,5.8,No
2015/10/08,17:30,0.499,0.290,0.521,0.478,0.459,0.235,0.204,west,5.9,No
2015/10/08,17:40,0.498,0.289,0.521,0.479,0.456,0.233,0.204,west,5.6,No
2015/10/08,17:50,0.503,0.289,0.523,0.477,0.459,0.235,0.203,west-northwest,5.3,No
2015/10/08,18:00,0.500,0.287,0.521,0.479,0.456,0.233,0.202,west-northwest,5.5,No
2015/10/08,18:10,0.504,0.289,0.524,0.476,0.458,0.234,0.204,west-northwest,5.0,No
2015/10/08,18:20,0.500,0.288,0.521,0.481,0.455,0.234,0.203,west-northwest,5.6,No
2015/10/08,18:30,0.503,0.288,0.524,0.476,0.457,0.234,0.203,west,5.7,No
2015/10/08,18:40,0.499,0.289,0.521,0.480,0.457,0.234,0.204,west-northwest,5.4,No
2015/10/08,18:50,0.504,0.288,0.524,0.477,0.455,0.234,0.203,west,5.2,No
2015/10/08,19:00,0.500,0.290,0.520,0.481,0.458,0.235,0.204,west,6.1,No
2015/10/08,19:10,0.504,0.289,0.525,0.476,0.454,0.233,0.203,west,5.1,No
2015/10/08,19:20,0.498,0.290,0.519,0.482,0.459,0.234,0.203,west-northwest,3.7,No
2015/10/08,19:30,0.503,0.287,0.524,0.476,0.454,0.233,0.203,west-northwest,3.3,No
2015/10/08,19:40,0.500,0.289,0.520,0.481,0.460,0.234,0.203,west-northwest,4.9,No
2015/10/08,19:50,0.503,0.289,0.523,0.477,0.454,0.232,0.202,west-northwest,3.9,No
2015/10/08,20:00,0.499,0.289,0.520,0.479,0.459,0.234,0.203,west-northwest,5.6,No
2015/10/08,20:10,0.504,0.289,0.524,0.475,0.456,0.233,0.204,west-northwest,4.7,No
2015/10/08,20:20,0.499,0.288,0.519,0.481,0.458,0.234,0.204,west,5.4,No
2015/10/08,20:30,0.502,0.289,0.525,0.477,0.455,0.233,0.203,west-northwest,5.0,No
2015/10/08,20:40,0.499,0.289,0.521,0.480,0.458,0.234,0.203,west,5.8,No
2015/10/08,20:50,0.504,0.289,0.525,0.477,0.456,0.235,0.203,west,7.7,No
2015/10/08,21:00,0.498,0.288,0.519,0.478,0.457,0.233,0.204,west-northwest,8.3,No
2015/10/08,21:10,0.504,0.288,0.524,0.477,0.455,0.235,0.203,west-northwest,8.9,No
2015/10/08,21:20,0.498,0.287,0.519,0.480,0.457,0.233,0.203,west-northwest,7.3,No
2015/10/08,21:30,0.502,0.289,0.525,0.477,0.457,0.234,0.203,west,5.6,No
2015/10/08,21:40,0.500,0.287,0.521,0.479,0.456,0.234,0.203,west,5.8,No
2015/10/08,21:50,0.502,0.289,0.525,0.480,0.458,0.235,0.203,west,4.2,No
2015/10/08,22:00,0.501,0.287,0.520,0.479,0.454,0.234,0.203,west-northwest,6.2,No
2015/10/08,22:10,0.504,0.289,0.523,0.477,0.459,0.234,0.203,west,6.3,No
2015/10/08,22:20,0.498,0.288,0.518,0.479,0.454,0.233,0.203,west-northwest,4.9,No
2015/10/08,22:30,0.502,0.288,0.524,0.477,0.458,0.234,0.203,west,3.3,No
2015/10/08,22:40,0.499,0.289,0.521,0.476,0.455,0.233,0.204,west,4.7,No
2015/10/08,22:50,0.503,0.288,0.525,0.479,0.459,0.234,0.203,west,5.8,No
2015/10/08,23:00,0.501,0.290,0.520,0.478,0.455,0.235,0.204,west,5.8,No
2015/10/08,23:10,0.504,0.287,0.525,0.479,0.456,0.233,0.203,west,8.4,No
2015/10/08,23:20,0.500,0.290,0.520,0.476,0.457,0.235,0.203,west,6.0,No
2015/10/08,23:30,0.504,0.287,0.526,0.478,0.457,0.234,0.204,west,5.9,No
2015/10/08,23:40,0.500,0.291,0.520,0.476,0.458,0.235,0.204,west,6.7,No
2015/10/08,23:50,0.501,0.288,0.526,0.479,0.456,0.234,0.203,west-northwest,7.1,No
